Airfield :
LOGIN :

Register | Disclaimer

   EN    FR    IT 

 










Legend :    VFR   Marginal VFR   IFR   Intensive IFR   Very Intensive IFR
Visi :
Ceiling :
>= 8 km
>= 3000ft
5 to 8 km
1000 to 3000 ft
1500m to 5 km
500 to 1000 ft
800 to 1500m
200 to 500 ft
< 800m
< 200 ft
Symbols :   Thunderstorms  Fog  Heavy snow  Heavy precipitations  Wind > 20 kt
SIGMETs :     Misc.  Thunderstorms  Icing  Turbulence  Mountain Waves  Volcanic Ashes






- Airport Elevation : 1325 ft
- IATA code : EBU


LFMH - St-Etienne Boutheon

CURRENT METAR :
  • 290730Z AUTO VRB01KT 9999 FEW022 OVC038 05/04 Q1017

EXPIRED METARs :
  • 290700Z AUTO VRB01KT 9999 OVC023 05/04 Q1017
  • 290630Z AUTO 00000KT 9999 BKN028 OVC035 05/04 Q1017
  • 290600Z AUTO 00000KT 9999 BKN027 OVC050 05/04 Q1017
  • 290530Z AUTO VRB02KT 9999 -RA FEW024 OVC035 05/04 Q1016
  • 290500Z AUTO VRB02KT 9999 -RA BKN025 OVC031 05/04 Q1016

Expired Forecast.
ATIS : +33 4 77 36 17 51



MET'MAP, your aeronautical weather chart ! - Copyright ORBIFLY December 2007 - Disclaimer

ORBIFLY MET'MAP TEAM :

Programming & Development : Alexandra Zaïnal
Original concept : Baudouin d'Aumeries
Technical & hardware support : Manuel Goepfert
Assistance : Marc-Olivier Méhu




SOURCES & CREDITS :

   NOAA